{"data":{"norad_id":66329,"epoch":"2026-05-25T01:20:15.834048Z","epoch_age_seconds":74267,"freshness":"FRESH","line1":"1 66329U 25253L   26145.05573882  .00017896  00000+0  65799-3 0  9998","line2":"2 66329  42.9984 141.2306 0001438 242.3613 117.7092 15.27594389 31923","mean_motion":15.27594389,"eccentricity":0.0001438,"inclination_deg":42.9984,"raan_deg":141.2306,"arg_perigee_deg":242.3613,"mean_anomaly_deg":117.7092,"bstar":0.00065799,"rev_number":3192,"period_min":94.265860778833,"perigee_km":482.01937817052,"apogee_km":483.99264290035,"semimajor_km":6861.1430105354,"source":"CELESTRAK","updated_at":"2026-05-25T13:38:21.168618Z"}}